TimePST,TemperatureF,Dew PointF,Humidity,Sea Level PressureIn,VisibilityMPH,Wind Direction,Wind SpeedMPH,Gust SpeedMPH,PrecipitationIn,Events,Conditions,WindDirDegrees,DateUTC
12:56 AM,39.0,34.0,82,30.13,10.0,Calm,Calm,-,N/A,,Clear,0,2013-02-22 08:56:00
1:56 AM,43.0,34.0,71,30.13,10.0,WSW,8.1,-,N/A,,Clear,250,2013-02-22 09:56:00
2:56 AM,41.0,34.0,76,30.12,10.0,West,5.8,-,N/A,,Clear,260,2013-02-22 10:56:00
3:56 AM,37.9,32.0,79,30.14,10.0,West,6.9,-,N/A,,Clear,260,2013-02-22 11:56:00
4:56 AM,37.0,28.9,73,30.15,10.0,WSW,4.6,-,N/A,,Clear,240,2013-02-22 12:56:00
5:56 AM,37.0,30.9,79,30.16,10.0,WSW,4.6,-,N/A,,Clear,240,2013-02-22 13:56:00
6:56 AM,37.0,28.9,73,30.19,10.0,West,4.6,-,N/A,,Clear,280,2013-02-22 14:56:00
7:56 AM,48.0,32.0,54,30.22,10.0,Calm,Calm,-,N/A,,Clear,0,2013-02-22 15:56:00
8:56 AM,54.0,32.0,43,30.23,10.0,West,3.5,-,N/A,,Clear,280,2013-02-22 16:56:00
9:56 AM,59.0,27.0,29,30.24,10.0,West,4.6,-,N/A,,Clear,280,2013-02-22 17:56:00
10:56 AM,64.0,23.0,21,30.24,10.0,NNW,6.9,-,N/A,,Clear,330,2013-02-22 18:56:00
11:56 AM,66.0,17.1,15,30.21,10.0,NNE,8.1,-,N/A,,Clear,20,2013-02-22 19:56:00
12:56 PM,66.9,17.1,15,30.19,10.0,North,5.8,-,N/A,,Clear,360,2013-02-22 20:56:00
1:56 PM,66.9,18.0,15,30.17,10.0,WNW,3.5,-,0.78,,Clear,290,2013-02-22 21:56:00
2:56 PM,68.0,15.1,13,30.15,10.0,NNW,6.9,-,N/A,,Clear,340,2013-02-22 22:56:00
3:56 PM,68.0,15.1,13,30.14,10.0,North,4.6,-,N/A,,Clear,10,2013-02-22 23:56:00
4:56 PM,66.0,16.0,15,30.14,10.0,Calm,Calm,-,N/A,,Clear,0,2013-02-23 00:56:00
5:56 PM,60.1,17.1,19,30.16,10.0,East,3.5,-,N/A,,Clear,80,2013-02-23 01:56:00
6:56 PM,57.0,19.9,24,30.17,10.0,South,4.6,-,N/A,,Clear,170,2013-02-23 02:56:00
7:56 PM,53.1,21.0,29,30.17,10.0,SSE,4.6,-,N/A,,Clear,160,2013-02-23 03:56:00
8:56 PM,50.0,24.1,36,30.18,10.0,SSW,3.5,-,N/A,,Clear,200,2013-02-23 04:56:00
9:56 PM,50.0,23.0,35,30.19,10.0,SW,3.5,-,N/A,,Clear,220,2013-02-23 05:56:00
10:56 PM,46.0,21.0,37,30.19,10.0,West,5.8,-,N/A,,Clear,260,2013-02-23 06:56:00
11:56 PM,46.9,21.9,37,30.18,10.0,West,6.9,-,N/A,,Clear,260,2013-02-23 07:56:00